Home > Weather > Annapolis > Past weeks

Flag for USA Past Weather in Annapolis, Maryland, USA — Yesterday and Last 2 Weeks

Now
79 °F

Clear.


Feels Like: 83 °F
Forecast: 76 / 92 °F
Wind: No wind

Location: Annapolis - United States Naval Academy

Current Time: Jul 24, 2016 at 12:55:41 AM

Latest Report: Jul 23, 2016 at 11:54 PM


Visibility: 10 mi

Pressure: 29.91 "Hg

Humidity: 90%

Dew Point: 76 °F

Location of AnnapolisLocation

Past Weather in Annapolis — Graph

°F

Annapolis Temperature Yesterday

Maximum temperature yesterday: 95 °F (at 2:54 PM)
Minimum temperature yesterday: 79 °F (at 11:54 PM)
Average temperature yesterday: 86 °F

High & Low Weather Summary for the Past Weeks

 TemperatureHumidityPressure
High95 °F (Jul 23, 2:54 PM)96% (Jul 14, 4:54 AM)30.21 "Hg (Jul 14, 4:54 AM)
Low70 °F (Jul 20, 4:54 AM)43% (Jul 17, 4:54 PM)29.77 "Hg (Jul 9, 3:54 AM)
Average81 °F71%30.02 "Hg
* Reported Jul 8 11:54 PM — Jul 23 11:54 PM, Annapolis, Weather by CustomWeather, © 2016

Note: Actual official high and low records may vary slightly from our data, if they occured in-between our weather recording intervals... More about our weather records

Advertising

Annapolis Weather History for the Previous 24 Hours

Scroll right to see more
 ConditionsComfort  
Time TempWeatherWind HumidityBarometerVisibility
11:54 PM
Sat, Jul 23
79 °FClear.No wind90%29.91 "Hg10 mi
10:54 PM80 °FClear.No wind90%29.91 "Hg10 mi
9:54 PM80 °FPassing clouds.No wind87%29.91 "Hg10 mi
8:54 PM80 °FLight rain. Cloudy.13 mph81%29.90 "Hg7 mi
7:54 PM91 °FSunny.No wind56%29.87 "Hg10 mi
6:54 PM94 °FSunny.No wind54%29.86 "Hg10 mi
5:54 PM90 °FPassing clouds.7 mph66%29.85 "Hg10 mi
4:54 PM93 °FPassing clouds.8 mph60%29.85 "Hg10 mi
3:54 PM95 °FPartly sunny.7 mph46%29.88 "Hg10 mi
2:54 PM95 °FPassing clouds.5 mph46%29.88 "Hg10 mi
1:54 PM94 °FPassing clouds.6 mph51%29.90 "Hg10 mi
12:54 PM92 °FScattered clouds.5 mph58%29.92 "Hg10 mi
11:54 AM90 °FSunny.8 mph57%29.93 "Hg10 mi
10:54 AM90 °FSunny.6 mph57%29.94 "Hg10 mi
9:54 AM88 °FSunny.5 mph63%29.93 "Hg10 mi
8:54 AM86 °FSunny.6 mph63%29.94 "Hg10 mi
7:54 AM84 °FSunny.6 mph67%29.94 "Hg10 mi
6:54 AM81 °FClear.6 mph74%29.93 "Hg10 mi
5:54 AM80 °FClear.5 mph74%29.92 "Hg10 mi
4:54 AM80 °FClear.6 mph76%29.91 "Hg10 mi
3:54 AM80 °FClear.No wind79%29.91 "Hg10 mi
2:54 AM81 °FClear.No wind77%29.91 "Hg10 mi
1:54 AM82 °FClear.3 mph72%29.90 "Hg10 mi
12:54 AM83 °FClear.5 mph70%29.91 "Hg10 mi
Weather by CustomWeather, © 2016

See weather overviewHow to use our weather pages